Volver al catálogo

CZ-4 DEB

ActivoSSO
NORAD 26351·DEBRIS·🇨🇳 China

Lanzado Oct 14, 1999 desde Taiyuan Satellite Launch Center

Loading…

Próximos Pases (próximas 24 horas)

TLE

ActualizadoSource: Space-Track

Época: Sep 14, 2026, 00:48 UTC

1 26351U 99057JL  26257.03334419  .00000663  00000-0  16718-3 0  9997
2 26351  98.6135 286.1801 0056499 115.3547 245.3513 14.53564094397403

Sigue CZ-4 DEB en tiempo real con AllMySat

Download on the App Store